Regional Weather Roundup
Issued by NWS New Orleans/Baton Rouge, LA

Home | Current Version | Previous Version | Graphics & Text | Print | Product List | Glossary On
Versions: 1 2 3 4 5 6 7 8 9 10 11 12 13 14 15 16 17 18 19 20 21 22 23 24 25 26 27 28 29 30 31 32 33 34 35 36 37 38 39 40 41 42 43 44 45 46 47 48 49 50
636
ASUS44 KLIX 200510
RWRLIX
NEW ORLEANS REGIONAL WEATHER ROUNDUP
NATIONAL WEATHER SERVICE NEW ORLEANS LA
1200 AM CDT SUN APR 20 2014

NOTE: "FAIR" INDICATES FEW OR NO CLOUDS BELOW 12,000 FEET WITH NO
      SIGNIFICANT WEATHER AND/OR OBSTRUCTIONS TO VISIBILITY.
      SKY/WX - SKY CONDITION AND SIGNIFICANT WEATHER.
      TMP - AIR TEMPERATURE.     DP    - DEWPOINT TEMPERATURE.
      RH  - RELATIVE HUMIDITY.   PRES  - PRESSURE.
      HI  - HEAT INDEX.          WCI   - WIND CHILL INDEX.

*  THESE STATIONS ARE NOT NWS OR FAA STATIONS AND ARE NOT UNDER
   NWS QUALITY CONTROL.

LAZ038-040-048-061>063-065>067-069-200600-
SOUTHEAST LOUISIANA

CITY           SKY/WX    TMP DP  RH WIND       PRES   REMARKS
N.O. AUDUBON     N/A     64  56  76 MISG        N/A
N.O. INTL ARPT CLEAR     66  57  72 CALM      30.11F
N.O. LAKEFRONT CLEAR     68  61  78 N7        30.11F
N.O. DOWNTOWN*   N/A     72  52  49 NE3       30.12F
SLIDELL        CLEAR     58  55  90 N3        30.11F
BATON ROUGE    CLEAR     63  53  70 N3        30.12F
BOOTHVILLE     CLEAR     64  61  90 NW7       30.12S
BELLE CHASSE   CLEAR     58  55  90 CALM      30.11F
BOGALUSA*        N/A     57  53  88 CALM      30.14F
GALLIANO*      CLEAR     61  58  92 CALM      30.12S
NEW ROADS*       N/A     61  54  76 N3        30.13S
GONZALES*        N/A     59  57  92 CALM      30.11F
HAMMOND*       CLEAR     57  54  88 CALM      30.13F
HOUMA*           N/A     61  56  83 CALM      30.12S
PORT FOURCHON* CLEAR     68  63  83 W6        30.13F

$$

MSZ070-080>082-200600-
SOUTHERN MISSISSIPPI

CITY           SKY/WX    TMP DP  RH WIND       PRES   REMARKS
MCCOMB         CLEAR     63  52  67 N6        30.14F
GULFPORT       CLEAR     61  54  77 N5        30.10F
BILOXI         CLEAR     63  55  75 NE3       30.10F
PASCAGOULA     CLEAR     56  55  97 CALM      30.12R

$$

COASTAL OBSERVATIONS
LAKE AND NEARSHORE STATIONS

STATION/POSITION TIME  TEMP    WIND        PRES    WAVE
                       AIR SEA DIR/SP/G            HT/PER
                 (UTC) (F)     (DEG/KT/KT) (MB)    (FT/S)
PASCAGOULA       0500   63     350/  6/  6 1019.0
WAVELAND YACHT   0500   65 70  340/  5/  5 1018.8
GRAND ISLE       0500   68 69  290/  8/ 10 1020.2
SOUTHWEST PASS   0500   66 59  300/ 11/ 13 1019.9
NEW CANAL        0500   69 67   20/  4/  5 1019.9
SHELL BEACH      0500   69 66  340/  6/  6 1019.4

OFFSHORE STATIONS

STATION/POSITION TIME  TEMP    WIND        PRES    WAVE
                       AIR SEA DIR/SP/G            HT/PER
                 (UTC) (F)     (DEG/KT/KT) (MB)    (FT/S)
64 S DAUPHIN ISL 0447   70 71   40/ 12/ 16 1019.2

$$




USA.gov is the U.S. government's official web portal to all federal, state and local government web resources and services.